• In Czech Republic
  • List of Countries
  • For 7 days
  • Water Temperature
  • Satellite Maps
  • Weather Map
  • Weather Widgets
  • user-avatar
    Login

    Hourly Weather Mayrhofen

    Today, 22 July, Saturday

    Time Temperature Precipitation Wind Pressure Humidity
    00:00 +10°C° 0.1 mm 2 mps 618 mmHg 89%
    01:00 +10°C° 0.1 mm 2 mps 618 mmHg 89%
    02:00 +10°C° 0.1 mm 2 mps 618 mmHg 88%
    03:00 +9°C° 0.1 mm 2 mps 618 mmHg 88%
    04:00 +9°C° 0.1 mm 2 mps 618 mmHg 87%
    05:00 +11°C° 0.1 mm 1 mps 618 mmHg 84%
    06:00 +12°C° 0.1 mm 1 mps 619 mmHg 81%
    07:00 +13°C° 0.1 mm 1 mps 619 mmHg 78%
    08:00 +15°C° 0 mm 1 mps 620 mmHg 71%
    09:00 +18°C° 0 mm 1 mps 621 mmHg 64%
    10:00 +20°C° 0 mm 1 mps 622 mmHg 57%
    11:00 +20°C° 0.4 mm 1 mps 622 mmHg 58%
    12:00 +20°C° 0.4 mm 1 mps 622 mmHg 60%
    13:00 +20°C° 0.4 mm 1 mps 622 mmHg 61%
    14:00 +20°C° 1 mm 1 mps 622 mmHg 63%
    15:00 +20°C° 1 mm 1 mps 621 mmHg 65%
    16:00 +20°C° 1 mm 1 mps 621 mmHg 66%
    17:00 +19°C° 1.2 mm 1 mps 621 mmHg 73%
    18:00 +18°C° 1.2 mm 1 mps 621 mmHg 79%
    19:00 +15°C° 1.2 mm 0 mps 620 mmHg 86%
    20:00 +15°C° 1.4 mm 1 mps 620 mmHg 89%
    21:00 +13°C° 1.4 mm 1 mps 620 mmHg 92%
    22:00 +12°C° 1.4 mm 1 mps 619 mmHg 94%
    23:00 +12°C° 0.8 mm 1 mps 619 mmHg 95%

    Tomorrow, 23 July, Sunday

    Time Temperature Precipitation Wind Pressure Humidity
    00:00 +12°C° 0.8 mm 1 mps 619 mmHg 95%
    01:00 +12°C° 0.8 mm 2 mps 619 mmHg 95%
    02:00 +12°C° 1.1 mm 1 mps 619 mmHg 95%
    03:00 +11°C° 1.1 mm 1 mps 619 mmHg 96%
    04:00 +11°C° 1.1 mm 1 mps 619 mmHg 96%
    05:00 +12°C° 0.3 mm 1 mps 620 mmHg 93%
    06:00 +13°C° 0.3 mm 1 mps 620 mmHg 91%
    07:00 +14°C° 0.3 mm 1 mps 621 mmHg 89%
    08:00 +15°C° 0.1 mm 1 mps 621 mmHg 80%
    09:00 +18°C° 0.1 mm 1 mps 622 mmHg 72%
    10:00 +19°C° 0.1 mm 1 mps 622 mmHg 63%
    11:00 +18°C° 0.4 mm 2 mps 622 mmHg 65%
    12:00 +18°C° 0.4 mm 2 mps 622 mmHg 66%
    13:00 +18°C° 0.4 mm 2 mps 622 mmHg 68%
    14:00 +17°C° 1.2 mm 2 mps 621 mmHg 73%
    15:00 +17°C° 1.2 mm 2 mps 621 mmHg 79%
    16:00 +16°C° 1.2 mm 2 mps 620 mmHg 84%
    17:00 +15°C° 1.1 mm 2 mps 620 mmHg 88%
    18:00 +14°C° 1.1 mm 1 mps 620 mmHg 91%
    19:00 +13°C° 1.1 mm 1 mps 620 mmHg 94%
    20:00 +13°C° 0.6 mm 1 mps 620 mmHg 95%
    21:00 +12°C° 0.6 mm 1 mps 619 mmHg 96%
    22:00 +12°C° 0.6 mm 1 mps 619 mmHg 97%
    23:00 +12°C° 0.5 mm 1 mps 619 mmHg 97%

    Day after tomorrow, 24 July, Monday

    Time Temperature Precipitation Wind Pressure Humidity
    00:00 +11°C° 0.5 mm 1 mps 619 mmHg 97%
    01:00 +11°C° 0.5 mm 1 mps 618 mmHg 97%
    02:00 +11°C° 0.4 mm 1 mps 618 mmHg 97%
    03:00 +11°C° 0.4 mm 1 mps 617 mmHg 97%
    04:00 +11°C° 0.4 mm 1 mps 616 mmHg 97%
    05:00 +11°C° 0.9 mm 1 mps 616 mmHg 96%
    06:00 +11°C° 0.9 mm 0 mps 616 mmHg 94%
    07:00 +11°C° 0.9 mm 0 mps 616 mmHg 93%
    08:00 +12°C° 1.4 mm 1 mps 616 mmHg 91%
    09:00 +13°C° 1.4 mm 1 mps 616 mmHg 90%
    10:00 +13°C° 1.4 mm 1 mps 615 mmHg 88%
    11:00 +12°C° 2.6 mm 1 mps 615 mmHg 90%
    12:00 +12°C° 2.6 mm 1 mps 615 mmHg 92%
    13:00 +10°C° 2.6 mm 2 mps 614 mmHg 95%
    14:00 +10°C° 2.2 mm 2 mps 614 mmHg 95%
    15:00 +9°C° 2.2 mm 2 mps 614 mmHg 95%
    16:00 +9°C° 2.2 mm 2 mps 614 mmHg 95%
    17:00 +9°C° 0.9 mm 2 mps 614 mmHg 96%
    18:00 +8°C° 0.9 mm 2 mps 614 mmHg 96%
    19:00 +8°C° 0.9 mm 2 mps 614 mmHg 97%
    20:00 +8°C° 0.1 mm 2 mps 614 mmHg 96%
    21:00 +7°C° 0.1 mm 2 mps 614 mmHg 96%
    22:00 +7°C° 0.1 mm 2 mps 614 mmHg 96%
    23:00 +6°C° 0 mm 2 mps 614 mmHg 96%

    25 July, Tuesday

    Time Temperature Precipitation Wind Pressure Humidity
    00:00 +6°C° 0 mm 2 mps 614 mmHg 96%
    01:00 +5°C° 0 mm 2 mps 613 mmHg 96%
    02:00 +4°C° 0 mm 2 mps 613 mmHg 96%
    03:00 +4°C° 0 mm 2 mps 613 mmHg 96%
    04:00 +4°C° 0 mm 2 mps 612 mmHg 96%
    05:00 +5°C° 0 mm 2 mps 613 mmHg 93%
    06:00 +5°C° 0 mm 2 mps 613 mmHg 90%
    07:00 +6°C° 0 mm 2 mps 614 mmHg 88%
    08:00 +8°C° 0.1 mm 2 mps 614 mmHg 80%
    09:00 +9°C° 0.1 mm 2 mps 615 mmHg 72%
    10:00 +12°C° 0.1 mm 2 mps 615 mmHg 64%
    11:00 +13°C° 0.2 mm 2 mps 616 mmHg 59%
    12:00 +14°C° 0.2 mm 2 mps 616 mmHg 54%
    13:00 +15°C° 0.2 mm 2 mps 616 mmHg 49%
    14:00 +14°C° 0.5 mm 2 mps 616 mmHg 54%
    15:00 +14°C° 0.5 mm 2 mps 616 mmHg 59%
    16:00 +12°C° 0.5 mm 3 mps 615 mmHg 64%
    17:00 +12°C° 0.5 mm 2 mps 615 mmHg 70%
    18:00 +10°C° 0.5 mm 2 mps 615 mmHg 76%
    19:00 +9°C° 0.5 mm 2 mps 615 mmHg 83%
    20:00 +8°C° 0.1 mm 2 mps 614 mmHg 86%
    21:00 +6°C° 0.1 mm 2 mps 614 mmHg 89%
    22:00 +5°C° 0.1 mm 2 mps 614 mmHg 92%
    23:00 +6°C° 0 mm 1 mps 614 mmHg 92%

    26 July, Wednesday

    Time Temperature Precipitation Wind Pressure Humidity
    00:00 +5°C° 0 mm 1 mps 614 mmHg 92%
    01:00 +4°C° 0 mm 1 mps 613 mmHg 92%
    02:00 +4°C° 0 mm 1 mps 613 mmHg 91%
    03:00 +4°C° 0 mm 1 mps 613 mmHg 90%
    04:00 +4°C° 0 mm 1 mps 613 mmHg 88%
    05:00 +5°C° 0 mm 1 mps 614 mmHg 83%
    06:00 +7°C° 0 mm 1 mps 615 mmHg 77%
    07:00 +9°C° 0 mm 1 mps 615 mmHg 71%
    08:00 +11°C° 0 mm 1 mps 616 mmHg 63%
    09:00 +13°C° 0 mm 1 mps 617 mmHg 55%
    10:00 +15°C° 0 mm 1 mps 618 mmHg 47%
    11:00 +16°C° 0.1 mm 1 mps 618 mmHg 46%
    12:00 +16°C° 0.1 mm 1 mps 618 mmHg 44%
    13:00 +17°C° 0.1 mm 2 mps 618 mmHg 43%
    14:00 +16°C° 0.2 mm 2 mps 617 mmHg 45%
    15:00 +16°C° 0.2 mm 2 mps 617 mmHg 48%
    16:00 +16°C° 0.2 mm 2 mps 617 mmHg 50%
    17:00 +15°C° 0.2 mm 1 mps 617 mmHg 58%
    18:00 +14°C° 0.2 mm 1 mps 616 mmHg 66%
    19:00 +13°C° 0.2 mm 1 mps 616 mmHg 74%
    20:00 +11°C° 0 mm 1 mps 616 mmHg 78%
    21:00 +10°C° 0 mm 1 mps 616 mmHg 82%
    22:00 +8°C° 0 mm 1 mps 615 mmHg 86%
    23:00 +8°C° 0 mm 1 mps 615 mmHg 86%

    27 July, Thursday

    Time Temperature Precipitation Wind Pressure Humidity
    00:00 +7°C° 0 mm 2 mps 615 mmHg 86%
    01:00 +6°C° 0 mm 2 mps 615 mmHg 87%
    02:00 +6°C° 0 mm 2 mps 615 mmHg 87%
    03:00 +7°C° 0 mm 2 mps 615 mmHg 87%
    04:00 +7°C° 0 mm 2 mps 615 mmHg 87%
    05:00 +7°C° 0.4 mm 2 mps 615 mmHg 87%
    06:00 +8°C° 0.4 mm 2 mps 616 mmHg 88%
    07:00 +10°C° 0.4 mm 1 mps 616 mmHg 89%
    08:00 +10°C° 0.2 mm 2 mps 616 mmHg 82%
    09:00 +13°C° 0.2 mm 2 mps 617 mmHg 76%
    10:00 +15°C° 0.2 mm 2 mps 618 mmHg 69%
    11:00 +15°C° 0.3 mm 2 mps 618 mmHg 68%
    12:00 +16°C° 0.3 mm 2 mps 618 mmHg 66%
    13:00 +16°C° 0.3 mm 2 mps 618 mmHg 64%
    14:00 +15°C° 1.9 mm 2 mps 618 mmHg 73%
    15:00 +14°C° 1.9 mm 1 mps 617 mmHg 81%
    16:00 +12°C° 1.9 mm 1 mps 617 mmHg 90%
    17:00 +12°C° 1.7 mm 1 mps 617 mmHg 91%
    18:00 +12°C° 1.7 mm 1 mps 617 mmHg 93%
    19:00 +11°C° 1.7 mm 1 mps 617 mmHg 95%
    20:00 +10°C° 0.2 mm 1 mps 617 mmHg 95%
    21:00 +10°C° 0.2 mm 1 mps 617 mmHg 95%
    22:00 +9°C° 0.2 mm 1 mps 617 mmHg 95%
    23:00 +9°C° 0.1 mm 1 mps 617 mmHg 95%
    Show more